Showing default

LEMUR 2 VALHALLA, 58900

Orbit data source: Space-Track

LEMUR 2 VALHALLA, 58900 is an American payload satellite in SSO that was launched on Wed, 31 Jan 2024 UTC via an ELECTRON launch vehicle from the Rocket Lab Launch Complex (RLLC). Payload-class satellites include a variety of spacecraft equipped with specific instruments for various scientific and technological missions. These include communications satellites like Starlink; space stations such as the ISS; scientific satellites like the Hubble; Earth observation satellites from companies like Planet Labs, Umbra, and HawkEye 360; GPS; miniature CubeSats for education and research; and military/defense satellites.

Loading next visibility...
Identifier
58900, 2024-022B
Orbit
SSO
Last TLE update
1 day ago
Origin
Manufacturer
Spire/Glasgow
Mission
Operational Commercial Early Warn
Bus & Motor
CUBESAT 3U, Unknown motor
Mass
~25 kg wet, ~25 kg dry
Launch date (UTC)
2024-01-31 (1 year ago)
Launch vehicle
ELECTRON
Launch site
Rocket Lab Launch Complex (RLLC)
Object type
Payload
Rocket body
Debris
Shape & HBR
Box + 2 Pan, 1 m
Radar Cross Section
0.146 m², Medium (>0.1 m² and < 1m²)

Expand to show TLE details & history

TLE from 1 day ago
0 LEMUR 2 VALHALLA
1 58900U 24022B   25181.50303760  .00007553  00000-0  28014-3 0  9991
2 58900  97.4469  24.6511 0010502 291.9809  68.0313 15.27844800 78373
Epoch: 2025-06-30T12:04Z
TLE epoch observation values (Epoch: 2025-06-30T12:04:22.448Z)
Latitude
-0.00013°
Longitude
-75.25433°
Altitude
482.667 km
Speed
7.626 km/s
True Right ascension
01h 38m 36s
True Declination
0° 00' 00"
Sunlit
Object was in daylight at epoch
Visualization orbit readout
Latitude
17.10267°
Longitude
108.04882°
Altitude
488.882 km
Speed
7.62 km/s
Apparent Right ascension
13h 04m 23s
Apparent Declination
-10° 29' 56"
Sunlit
Object is in daylight
Visualization observer readout
Local Sidereal Time
00:00:27
Azimuth
329.883° NNW
Elevation
-57.342°
Doppler factor
1
Orbital elements
Apogee altitude
486.415 km
Perigee altitude
472.012 km
Semi-major axis
6,857.35 km
Eccentricity
0.00105
Inclination
97.4469°
RAAN
24.6511°
Arg. of periapsis
291.9809°
True anomaly
Unknown
Mean anomaly
68.0313°
Eccentric anomaly
Unknown
Mean motion
3.82216 °/min
Orbital period
94.19 mins
BSTAR
0.00028014
Loading maneuver chart data...
Loading SW <> Apogee altitude chart data...
Loading historical data...
Loading historical data...
Loading historical data...
Loading historical data...
Loading historical data...
Loading historical data...
Loading historical data...

LEMUR 2 VALHALLA Visibility forecast

Observer location: undefined°, undefined°

Span
Click to sort rows by Start time (UTC) header in descending order
Start Az.
Max El. time (UTC)
Max El. Az.
Max El.
End time (UTC)
End Az.
6 mins2025-07-01 13:20:41.201Z152.702° SSE2025-07-01 13:23:41.201Z101.791° ESE38.184°2025-07-01 13:26:41.201Z0.721° NNE
5 mins2025-07-02 02:22:41.201Z18.553° NNE2025-07-02 02:24:41.201Z145.77° SSE43.842°2025-07-02 02:27:41.201Z188.419° SSW
|